Change the Weather History Date:

Wednesday, December 5, 2012

  Actual Average Record
Temperature  
Mean Temperature 52 °F -  
Max Temperature 64 °F 57 °F 77 °F (2014)
Min Temperature 39 °F 36 °F 24 °F (2008)
Degree Days  
Heating Degree Days 14    
Growing Degree Days 2 (Base 50)    
Moisture  
Dew Point 37 °F    
Average Humidity 59    
Maximum Humidity 90    
Minimum Humidity 41    
Precipitation  
Precipitation 0.00 in - - ()
Sea Level Pressure  
Sea Level Pressure 30.18 in    
Wind  
Wind Speed 6 mph (ENE)    
Max Wind Speed 9 mph    
Max Gust Speed -    
Visibility 10 miles    
Events      
Averages and records for this station are not official NWS values.
T = Trace of Precipitation, MM = Missing Value Source: NWS Daily Summary

Daily Weather History Graph

Daily Weather History Graph

Search for Another Location

Airport or City:

Trip Planner

Search our weather history database for the weather conditions in past years. The results will help you decide how hot, cold, wet, or windy it might be!

Date:

Astronomy

Dec. 05, 2012 Rise Set
Actual Time 7:17 AM CST 5:21 PM CST
Civil Twilight 6:50 AM CST 5:48 PM CST
Nautical Twilight 6:19 AM CST 6:19 PM CST
Astronomical Twilight 5:49 AM CST 6:49 PM CST
Moon 11:56 PM CST (12/5) 11:56 AM CST (12/5)
Length of Visible Light 10h 57m
Length of Day
10h 03m
Waning Gibbous, 59% of the Moon is Illuminated
Dec 5
Waning Gibbous
Dec 6
Last Quarter
Dec 13
New
Dec 19
First Quarter
Dec 28
Full

Hourly Weather History & Observations

Time (CST) Temp. Windchill Dew Point Humidity Pressure Visibility Wind Dir Wind Speed Gust Speed Precip Events Conditions
12:53 AM 43.0 °F 38.2 °F 25.0 °F 49% 30.27 in 10.0 mi NNW 8.1 mph - N/A   Clear
1:53 AM 43.0 °F 40.3 °F 24.1 °F 47% 30.26 in 10.0 mi NNW 4.6 mph - N/A   Clear
2:53 AM 41.0 °F 36.4 °F 25.0 °F 53% 30.26 in 10.0 mi NNW 6.9 mph - N/A   Clear
3:53 AM 42.1 °F 37.7 °F 27.0 °F 55% 30.27 in 10.0 mi North 6.9 mph - N/A   Clear
4:53 AM 41.0 °F 37.1 °F 27.0 °F 57% 30.27 in 10.0 mi NNW 5.8 mph - N/A   Clear
5:53 AM 41.0 °F 38.0 °F 28.0 °F 60% 30.26 in 10.0 mi North 4.6 mph - N/A   Clear
6:53 AM 39.0 °F 34.8 °F 28.0 °F 65% 30.28 in 10.0 mi NNW 5.8 mph - N/A   Clear
8:53 AM 48.0 °F - 32.0 °F 54% 30.30 in 10.0 mi North 8.1 mph - N/A   Clear
9:53 AM 53.1 °F - 35.1 °F 50% 30.29 in 10.0 mi NE 9.2 mph - N/A   Clear
10:53 AM 57.9 °F - 39.9 °F 51% 30.27 in 10.0 mi ENE 4.6 mph - N/A   Clear
11:53 AM 62.1 °F - 41.0 °F 46% 30.23 in 10.0 mi Variable 4.6 mph - N/A   Clear
12:53 PM 63.0 °F - 42.1 °F 46% 30.19 in 10.0 mi Variable 4.6 mph - N/A   Clear
1:53 PM 64.0 °F - 41.0 °F 43% 30.14 in 10.0 mi ENE 4.6 mph - N/A   Clear
2:53 PM 64.0 °F - 39.9 °F 41% 30.12 in 10.0 mi Calm Calm - N/A   Clear
3:53 PM 64.0 °F - 41.0 °F 43% 30.11 in 10.0 mi ESE 5.8 mph - N/A   Clear
4:53 PM 62.1 °F - 42.1 °F 48% 30.09 in 10.0 mi ESE 8.1 mph - N/A   Clear
6:53 PM 55.0 °F - 45.0 °F 69% 30.09 in 10.0 mi SE 5.8 mph - N/A   Clear
7:53 PM 54.0 °F - 46.0 °F 75% 30.10 in 10.0 mi ESE 4.6 mph - N/A   Clear
8:53 PM 52.0 °F - 46.0 °F 80% 30.08 in 10.0 mi SE 6.9 mph - N/A   Clear
9:53 PM 50.0 °F - 45.0 °F 83% 30.07 in 10.0 mi SE 4.6 mph - N/A   Clear
10:53 PM 48.9 °F - 46.0 °F 90% 30.05 in 10.0 mi ESE 6.9 mph - N/A   Clear
11:53 PM 48.0 °F - 45.0 °F 89% 30.04 in 10.0 mi SE 6.9 mph - N/A   Clear